Find Starlink 33859

NORAD ID: 63640 Int'l Des: 2025-083 Owner: SPXS Country: US Constellation: starlink operational
LEOCIRCULAR

リアルタイム位置

3D地球を読み込み中...

Starlink 33859について

説明を読み込み中...

次回通過

Passes for default location (London). Set your location on the main map for personalized predictions.

高度履歴

Loading altitude history...

軌道要素

1 63640U 25083G 26125.19133316 .00024754 00000-0 90637-3 0 9990
2 63640 43.0001 46.5050 0001167 290.2226 69.8501 15.27567766 58708
Epoch: May 5, 2026 • Age: 18 hours

現在のステータス

高度 487.0 km
速度 7.62 km/s
衛星直下点 -19.03°S, 38.56°E
打ち上げ日 Apr 25, 2025
運用期間 1 years
タイプ internet

技術仕様

分類 Payload
質量 575.00 kg
乾燥質量 530.00 kg
総質量 575.00 kg
長さ 0.30 m
直径 4.10 m
スパン 29.00 m
形状 Box + pan
製造者 SPXS
バスタイプ Starlink V2MO
フェーズステータス In Orbit
所有者/国 SPXS/US

Most Searched